星链-36564(STARLINK-36564)

导读 | 豆包AI

STARLINK-36564是美国太空探索技术公司星链互联网星座计划中的一颗卫星,于2026年1月22日发射升空。它继承了星链卫星低轨道部署的设计特点,旨在为全球用户提供高速低延迟的宽带互联网服务,补充完善星链星座的全球覆盖能力,进一步推动全球太空互联网基础设施建设。

基本信息
目录编号:
67549
目录名称:
STARLINK-36564
国际标识:
2026-014T
轨道中心:
EARTH
卫星名称:
星链-36564
卫星全名:
星链-36564(STARLINK-36564)
卫星状态:
在轨 (已飞行72 天)
发射日期:
2026-01-22 UTC
国别 :
美国 (US)
星等 :
--
轨道信息
数据来源 国际轨道数据
星历时间: 2026-04-04T00:00:44+0800
8小时前
查看轨道信息
半长轴: 6722.21km
偏心率: 0.000113
轨道倾角: 97.283°
近地点辐角 69.394°
升交点赤经 339.805°
平近点角 290.744°
近地点: 343.313km
远地点: 344.833km
周期: 91.417分钟
每日圈数: 15.751964
详细信息
固有亮度:
5
最大亮度:
2.5
卫星平台:
Starlink V1.0
覆盖范围:
全球
运营商:
太空探索技术公司
运营商所在国:
美国
制造商(研发单位):
太空探索技术公司
制造商所在国:
美国
使用方式:
暂无
卫星简介
Starlink 计划是 SpaceX 推出的全球卫星互联网项目,通过发射低轨道卫星,为全球尤其是偏远地区提供高速、低延迟的互联网服务。自 2019 年起,Starlink 已部署数千颗卫星,旨在缩小全球数字鸿沟,推动互联网普及。该项目还为军事、航空等行业提供通信支持,带来广泛经济效益。
2D轨道图
3D轨道图
轨道高度分析图
轨道倾角分析图
轨道综合分析图
查看轨道综合分析图